Home > Weather > Sangerhausen > Past weeks

Flag for Germany Past Weather in Sangerhausen, Saxony-Anhalt, Germany — Yesterday and Last 2 Weeks

Now
55 °F

Clear.


Feels Like: 55 °F
Forecast: 46 / 70 °F
Wind: 5 mph from South

Location: Erfurt-Bindersleben

Current Time: May 27, 2016 at 12:43:07 AM

Latest Report: May 27, 2016 at 12:20 AM


Visibility: 10 mi

Pressure: 30.04 "Hg

Humidity: 72%

Dew Point: 46 °F

Location of SangerhausenLocation

Past Weather in Sangerhausen — Graph

°F

Sangerhausen Temperature Yesterday

Maximum temperature yesterday: 66 °F (at 2:50 PM)
Minimum temperature yesterday: 54 °F (at 12:20 AM)
Average temperature yesterday: 60 °F

High & Low Weather Summary for the Past Weeks

 TemperatureHumidityPressure
High82 °F (May 22, 2:20 PM)94% (May 13, 4:50 AM)30.09 "Hg (May 13, 4:50 AM)
Low36 °F (May 15, 3:20 AM)25% (May 22, 2:50 PM)29.50 "Hg (May 12, 4:50 PM)
Average55 °F69%29.89 "Hg
* Reported May 11 11:20 PM — May 26 11:20 PM, Sangerhausen, Weather by CustomWeather, © 2016

Note: Actual official high and low records may vary slightly from our data, if they occured in-between our weather recording intervals... More about our weather records

Advertising

Sangerhausen Weather History for the Previous 24 Hours

Scroll right to see more
 ConditionsComfort  
Time TempWeatherWind HumidityBarometerVisibility
11:20 PM
Thu, May 26
59 °FClear.2 mph63%30.04 "Hg10 mi
10:50 PM59 °FClear.2 mph63%30.04 "Hg10 mi
10:20 PM59 °FClear.3 mph63%30.04 "Hg10 mi
9:50 PM61 °FSunny.3 mph59%30.04 "Hg10 mi
9:20 PM61 °FSunny.No wind59%30.01 "Hg10 mi
8:50 PM63 °FSunny.No wind56%30.01 "Hg10 mi
8:20 PM63 °FSunny.1 mph59%30.01 "Hg10 mi
7:50 PM64 °FPassing clouds.3 mph56%30.01 "HgN/A
7:20 PM66 °FSunny.2 mph49%30.01 "Hg10 mi
6:50 PM66 °FPassing clouds.5 mph52%30.01 "HgN/A
6:20 PM66 °FPassing clouds.6 mph49%30.01 "HgN/A
5:50 PM66 °FPassing clouds.5 mph52%30.01 "HgN/A
5:20 PM66 °FPassing clouds.7 mph52%30.04 "HgN/A
4:50 PM66 °FPassing clouds.7 mph52%30.04 "HgN/A
4:20 PM66 °FPassing clouds.7 mph52%30.04 "HgN/A
3:50 PM66 °FPassing clouds.6 mph52%30.04 "HgN/A
3:20 PM64 °FScattered clouds.7 mph56%30.04 "HgN/A
2:50 PM66 °FScattered clouds.5 mph52%30.04 "HgN/A
2:20 PM64 °FScattered clouds.3 mph56%30.04 "HgN/A
1:50 PM64 °FScattered clouds.7 mph60%30.04 "HgN/A
1:20 PM64 °FPartly sunny.6 mph56%30.04 "HgN/A
12:50 PM63 °FPartly sunny.2 mph59%30.04 "HgN/A
12:20 PM63 °FPartly sunny.5 mph52%30.04 "HgN/A
11:50 AM61 °FBroken clouds.6 mph68%30.04 "HgN/A
11:20 AM61 °FCool.3 mph68%30.04 "HgN/A
10:50 AM61 °FBroken clouds.5 mph72%30.04 "HgN/A
10:20 AM59 °FBroken clouds.5 mph68%30.04 "HgN/A
9:50 AM59 °FPartly sunny.3 mph77%30.04 "HgN/A
9:20 AM57 °FPartly sunny.6 mph77%30.04 "HgN/A
8:50 AM57 °FPartly sunny.3 mph77%30.04 "HgN/A
8:20 AM55 °FPartly sunny.3 mph88%30.04 "HgN/A
7:50 AM55 °FPartly sunny.3 mph88%30.04 "HgN/A
7:20 AM55 °FPartly sunny.3 mph82%30.04 "HgN/A
6:50 AM54 °FPartly sunny.No wind94%30.01 "HgN/A
6:20 AM54 °FPartly sunny.No wind88%30.01 "HgN/A
5:50 AM54 °FPartly cloudy.No wind88%30.01 "HgN/A
5:20 AM54 °FPartly cloudy.No wind88%30.01 "HgN/A
4:50 AM54 °FPassing clouds.No wind88%30.01 "HgN/A
4:20 AM54 °FPassing clouds.No wind88%30.01 "HgN/A
3:50 AM54 °FPassing clouds.No wind88%30.01 "HgN/A
3:20 AM54 °FPassing clouds.No wind94%30.01 "HgN/A
2:50 AM54 °FPassing clouds.No wind94%30.01 "HgN/A
2:20 AM54 °FOvercast.No wind88%30.01 "HgN/A
1:50 AM54 °FPassing clouds.No wind88%30.01 "HgN/A
1:20 AM54 °FPassing clouds.No wind88%30.01 "HgN/A
12:50 AM54 °FPassing clouds.No wind88%30.01 "HgN/A
12:20 AM54 °FPartly cloudy.No wind88%30.01 "HgN/A
Weather by CustomWeather, © 2016

See weather overviewHow to use our weather pages